2023/01/26 00:00:00,83.9,-6.8
2023/01/26 00:10:00,83.9,-7.1
2023/01/26 00:20:00,84.0,-7.0
2023/01/26 00:30:00,84.2,-7.3
2023/01/26 00:40:00,84.1,-7.6
2023/01/26 00:50:00,84.1,-7.6
2023/01/26 01:00:00,84.0,-7.5
2023/01/26 01:10:00,83.9,-7.6
2023/01/26 01:20:00,83.9,-8.2
2023/01/26 01:30:00,83.7,-8.2
2023/01/26 01:40:00,83.7,-8.4
2023/01/26 01:50:00,83.6,-8.4
2023/01/26 02:00:00,83.7,-8.2
2023/01/26 02:10:00,83.7,-8.4
2023/01/26 02:20:00,83.6,-8.4
2023/01/26 02:30:00,83.4,-8.5
2023/01/26 02:40:00,83.6,-8.5
2023/01/26 02:50:00,83.7,-8.8
2023/01/26 03:00:00,83.7,-9.1
2023/01/26 03:10:00,83.7,-9.0
2023/01/26 03:20:00,83.8,-8.8
2023/01/26 03:30:00,83.9,-8.9
2023/01/26 03:40:00,84.4,-9.0
2023/01/26 03:50:00,84.1,-9.1
2023/01/26 04:00:00,83.9,-9.0
2023/01/26 04:10:00,83.7,-8.9
2023/01/26 04:20:00,83.6,-8.4
2023/01/26 04:30:00,83.3,-8.4
2023/01/26 04:40:00,83.2,-8.4
2023/01/26 04:50:00,83.2,-8.2
2023/01/26 05:00:00,83.2,-7.9
2023/01/26 05:10:00,83.1,-7.7
2023/01/26 05:20:00,82.9,-7.5
2023/01/26 05:30:00,82.9,-7.0
2023/01/26 05:40:00,83.1,-7.0
2023/01/26 05:50:00,83.1,-6.4
2023/01/26 06:00:00,83.2,-6.4
2023/01/26 06:10:00,83.0,-6.2
2023/01/26 06:20:00,82.9,-6.1
2023/01/26 06:30:00,83.0,-6.0
2023/01/26 06:40:00,83.1,-6.0
2023/01/26 06:50:00,83.0,-5.9
2023/01/26 07:00:00,83.1,-5.8
2023/01/26 07:10:00,83.1,-5.5
2023/01/26 07:20:00,83.1,-5.5
2023/01/26 07:30:00,83.1,-5.9
2023/01/26 07:40:00,83.2,-6.0
2023/01/26 07:50:00,83.2,-6.2
2023/01/26 08:00:00,83.2,-6.3
2023/01/26 08:10:00,83.2,-6.4
2023/01/26 08:20:00,83.2,-6.7
2023/01/26 08:30:00,83.3,-6.3
2023/01/26 08:40:00,83.4,-5.9
2023/01/26 08:50:00,83.2,-5.0
2023/01/26 09:00:00,83.2,-4.9
2023/01/26 09:10:00,82.9,-5.2
2023/01/26 09:20:00,82.9,-5.1
2023/01/26 09:30:00,82.9,-4.8
2023/01/26 09:40:00,82.8,-4.8
2023/01/26 09:50:00,82.9,-4.7
2023/01/26 10:00:00,82.7,-4.5
2023/01/26 10:10:00,83.2,-2.2
2023/01/26 10:20:00,83.4,-1.4
2023/01/26 10:30:00,83.3,-1.0
2023/01/26 10:40:00,83.2,-0.7
2023/01/26 10:50:00,82.9,-0.6
2023/01/26 11:00:00,82.7,-0.5
2023/01/26 11:10:00,82.4,-0.7
2023/01/26 11:20:00,82.3,-1.1
2023/01/26 11:30:00,82.9, 0.9
2023/01/26 11:40:00,82.9, 0.7
2023/01/26 11:50:00,82.0, 0.6
2023/01/26 12:00:00,82.2, 1.6
2023/01/26 12:10:00,81.9, 0.8
2023/01/26 12:20:00,81.3, 1.4
2023/01/26 12:30:00,80.6, 1.0
2023/01/26 12:40:00,79.7, 0.7
2023/01/26 12:50:00,79.3, 0.8
2023/01/26 13:00:00,79.5, 2.3
2023/01/26 13:10:00,78.6, 1.4
2023/01/26 13:20:00,78.1, 1.0
2023/01/26 13:30:00,77.8, 1.0
2023/01/26 13:40:00,77.6, 1.2
2023/01/26 13:50:00,77.6, 1.0
2023/01/26 14:00:00,77.3, 0.8
2023/01/26 14:10:00,76.7, 1.2
2023/01/26 14:20:00,75.8, 1.1
2023/01/26 14:30:00,75.5, 0.9
2023/01/26 14:40:00,74.8, 0.9
2023/01/26 14:50:00,74.6, 0.9
2023/01/26 15:00:00,74.2, 0.7
2023/01/26 15:10:00,73.8,-0.1
2023/01/26 15:20:00,73.5,-0.4
2023/01/26 15:30:00,71.4,-0.4
2023/01/26 15:40:00,71.3,-0.7
2023/01/26 15:50:00,71.1,-0.9
2023/01/26 16:00:00,70.9,-1.1
2023/01/26 16:10:00,71.1,-0.6
2023/01/26 16:20:00,71.2,-0.7
2023/01/26 16:30:00,71.1,-0.9
2023/01/26 16:40:00,70.9,-0.9
2023/01/26 16:50:00,70.6,-1.2
2023/01/26 17:00:00,70.5,-1.3
2023/01/26 17:10:00,70.4,-1.4
2023/01/26 17:20:00,70.3,-1.5
2023/01/26 17:30:00,70.1,-1.5
2023/01/26 17:40:00,70.3,-1.6
2023/01/26 17:50:00,70.9,-1.6
2023/01/26 18:00:00,71.4,-1.7
2023/01/26 18:10:00,71.9,-1.7
2023/01/26 18:20:00,72.1,-1.8
2023/01/26 18:30:00,72.4,-1.8
2023/01/26 18:40:00,72.4,-1.7
2023/01/26 18:50:00,72.8,-1.8
2023/01/26 19:00:00,73.1,-1.7
2023/01/26 19:10:00,73.5,-1.9
2023/01/26 19:20:00,73.4,-1.8
2023/01/26 19:30:00,73.5,-2.0
2023/01/26 19:40:00,73.5,-1.9
2023/01/26 19:50:00,73.5,-1.9
2023/01/26 20:00:00,73.5,-2.1
2023/01/26 20:10:00,73.5,-1.9
2023/01/26 20:20:00,73.4,-2.0
2023/01/26 20:30:00,73.4,-2.1
2023/01/26 20:40:00,73.4,-2.2
2023/01/26 20:50:00,73.4,-2.3
2023/01/26 21:00:00,73.5,-2.1
2023/01/26 21:10:00,73.4,-1.9
2023/01/26 21:20:00,73.5,-2.1
2023/01/26 21:30:00,73.4,-2.1
2023/01/26 21:40:00,73.4,-2.2
2023/01/26 21:50:00,73.4,-2.1
2023/01/26 22:00:00,73.5,-2.1
2023/01/26 22:10:00,73.4,-2.1
2023/01/26 22:20:00,73.4,-2.2
2023/01/26 22:30:00,73.4,-2.1
2023/01/26 22:40:00,73.3,-2.0
2023/01/26 22:50:00,73.3,-2.1
2023/01/26 23:00:00,73.3,-2.0
2023/01/26 23:10:00,73.3,-2.2
2023/01/26 23:20:00,73.3,-2.2
2023/01/26 23:30:00,73.2,-2.2
2023/01/26 23:40:00,73.1,-2.2
2023/01/26 23:50:00,73.1,-2.4
